Вернуться в каталог

METEOR 2-5 DEB

АктивенPO
NORAD 36923·DEBRIS·🇷🇺 Russia

Запущен Oct 31, 1979 с Plesetsk Cosmodrome

Loading…

Ближайшие Пролёты (ближайшие 24 часа)

TLE

УстаревающийSource: Space-Track

Эпоха: Sep 9, 2026, 00:08 UTC

1 36923U 79095BQ  26252.00564970  .00008048  00000-0  18030-2 0  9995
2 36923  81.1886 349.8117 0005013 242.0770 117.9919 14.56567779 37588

Отслеживайте METEOR 2-5 DEB в реальном времени с AllMySat

Download on the App Store